EW8956 Weather Reports


time (UTC)temp
C
wind
direction
speed
KPH
gust
KPH
rain 1hr
cm
rain 24hr
cm
rain mn
cm
humidity
%
barometer
mb
20260504184551 25 325 0.0 14.5 0.00 0.00 0.00 32 1015.5
20260504183057 25 18 0.0 14.5 0.00 0.00 0.00 34 1015.4
20260504181551 23 188 1.6 8.0 0.00 0.00 0.00 37 1015.5
20260504180130 23 303 1.6 14.5 0.00 0.00 0.00 36 1015.7
20260504174550 23 303 1.6 8.0 0.00 0.00 0.00 35 1015.9
20260504173050 23 355 1.6 9.7 0.00 0.00 0.00 35 1015.8
20260504171552 23 207 1.6 9.7 0.00 0.00 0.00 34 1015.9
20260504120105 8 0 0.0 0.0 0.00 0.00 0.00 81 1017.6
20260504081553 7 0 0.0 0.0 0.00 0.00 0.00 76 1017.3
20260504044546 11 0 0.0 1.6 0.00 0.00 0.00 54 1017.5
20260504043059 11 0 0.0 1.6 0.00 0.00 0.00 56 1017.4
20260504041549 10 0 0.0 1.6 0.00 0.00 0.00 62 1017.6
20260504034558 10 0 0.0 1.6 0.00 0.00 0.00 61 1017.5
20260504033043 10 0 0.0 0.0 0.00 0.00 0.00 62 1017.5
20260504031601 10 0 0.0 0.0 0.00 0.00 0.00 59 1017.6
20260504030050 10 0 0.0 0.0 0.00 0.00 0.00 67 1017.7
20260504024544 11 0 0.0 0.0 0.00 0.00 0.00 57 1017.6
20260504023050 11 0 0.0 0.0 0.00 0.00 0.00 56 1017.4
20260504021557 12 0 0.0 0.0 0.00 0.00 0.00 52 1017.2
20260504014553 12 0 0.0 1.6 0.00 0.00 0.00 48 1016.7
20260504013048 12 0 0.0 0.0 0.00 0.00 0.00 50 1016.8
20260504011547 12 0 0.0 0.0 0.00 0.00 0.00 47 1016.8
20260504010051 13 0 0.0 1.6 0.00 0.00 0.00 47 1016.6
20260504004549 14 0 0.0 0.0 0.00 0.00 0.00 43 1016.5
20260504003059 15 0 0.0 0.0 0.00 0.00 0.00 41 1016.4
20260504001556 15 0 0.0 1.6 0.00 0.00 0.00 38 1016.3
20260503234554 16 0 0.0 1.6 0.00 0.00 0.00 34 1016.2
20260503233057 17 0 0.0 4.8 0.00 0.00 0.00 33 1016.3
20260503231553 17 210 0.0 4.8 0.00 0.00 0.00 32 1016.2
20260503230108 17 0 0.0 8.0 0.00 0.00 0.00 31 1016.2
20260503224558 17 200 0.0 4.8 0.00 0.00 0.00 30 1016.2
20260503223048 17 216 0.0 3.2 0.00 0.00 0.00 33 1016.5
20260503221601 17 0 1.6 17.7 0.00 0.00 0.00 28 1016.7
20260503220053 17 214 1.6 8.0 0.00 0.00 0.00 27 1016.8
20260503214549 18 303 3.2 16.1 0.00 0.00 0.00 27 1016.8
20260503213059 18 169 1.6 4.8 0.00 0.00 0.00 26 1017.0
20260503211606 18 0 1.6 14.5 0.00 0.00 0.00 27 1017.1
20260503210047 18 343 1.6 6.4 0.00 0.00 0.00 27 1017.1
20260503204549 18 301 3.2 8.0 0.00 0.00 0.00 26 1017.1
20260503203052 18 284 0.0 6.4 0.00 0.00 0.00 27 1017.4
20260503201547 17 200 4.8 19.3 0.00 0.00 0.00 27 1017.5
20260503200056 18 210 3.2 9.7 0.00 0.00 0.00 26 1017.8
20260503194544 18 306 3.2 12.9 0.00 0.00 0.00 26 1018.1
20260503193056 18 219 1.6 11.3 0.00 0.00 0.00 27 1018.1
20260503191554 18 269 0.0 8.0 0.00 0.00 0.00 27 1018.3
20260503190050 17 252 0.0 11.3 0.00 0.00 0.00 26 1018.6